Theta_e
306 309 314 318 320 323 324 325 325 326 327 328 328 328 329 329 329 328 330 330 329 328 328 327 326 325 324 325 324 324 327 329 329 330 330 328 332 333 332 332 330 329 328 329 328 325 326 326 324 323 321 318 317 316 315 314 314 313 312 311 310 308 305 303 304 305 304 303 301 300 302 302 301 301 301 301 300 301 300 301 302 302 303 304 304
309 308 310 314 317 319 321 322 320 323 324 326 326 327 328 328 328 329 329 329 329 329 328 328 328 327 326 326 326 325 325 326 327 328 330 331 329 332 331 331 330 329 328 329 328 327 326 324 323 324 324 319 317 316 314 312 313 312 312 310 309 309 306 304 304 306 303 303 303 303 302 303 302 301 300 301 301 301 301 301 301 301 302 302 302
306 306 307 308 311 313 316 319 321 323 323 324 325 326 326 327 327 328 329 329 328 328 327 327 327 327 327 325 325 323 325 327 327 327 330 329 329 330 331 330 329 329 328 327 328 328 327 326 324 325 322 319 315 314 313 313 313 312 311 311 306 306 308 306 306 307 305 305 305 303 302 303 303 299 300 301 301 301 301 301 301 301 301 302 301
305 304 305 305 306 306 307 310 316 319 320 321 322 324 326 326 326 327 328 328 328 327 325 326 327 327 327 325 326 325 323 323 326 326 327 328 328 329 329 330 329 329 330 328 328 329 328 327 326 324 323 320 317 314 313 313 312 311 311 311 310 307 306 305 305 306 307 306 301 302 301 300 300 302 302 302 302 302 302 301 301 301 301 301 300
305 303 303 303 305 305 306 306 307 310 313 319 321 323 325 325 326 327 326 326 326 325 325 325 325 325 325 322 322 320 320 319 320 321 322 325 328 327 328 327 330 330 331 331 329 328 328 328 326 325 324 322 319 317 315 315 313 312 312 311 311 311 307 307 305 306 306 309 308 300 298 297 299 303 303 305 302 301 301 302 301 301 301 301 300
304 303 303 303 305 304 304 305 306 307 308 311 317 320 320 322 323 324 324 325 325 325 325 325 324 323 321 320 318 317 316 316 317 317 318 320 321 322 329 330 330 331 332 331 330 327 328 327 325 323 322 321 320 319 318 316 314 313 313 312 311 311 311 308 306 304 306 306 307 309 309 306 304 302 303 301 303 302 302 301 301 301 301 301 300
301 302 303 302 302 303 304 305 305 306 306 307 311 316 317 319 321 322 322 323 324 323 325 323 321 321 320 319 318 318 316 316 316 318 320 319 321 320 320 323 329 330 330 330 329 328 327 325 324 324 324 321 319 318 317 317 315 313 313 312 312 311 310 308 309 305 303 304 305 306 306 306 305 303 303 303 301 300 299 298 299 299 301 300 300
301 300 300 300 301 302 303 304 305 305 304 306 307 310 313 315 318 320 320 320 321 322 322 322 321 318 317 316 318 316 316 314 316 318 318 317 317 320 324 324 326 328 326 324 324 325 325 326 326 325 324 322 319 318 317 317 317 315 313 313 312 311 310 309 309 307 303 303 303 303 304 305 306 305 304 302 302 299 301 302 301 299 298 298 299
303 303 302 301 301 301 301 301 302 304 304 305 305 305 308 309 312 314 317 316 318 319 320 319 319 318 318 316 315 315 316 314 315 316 316 315 316 315 317 318 319 321 321 322 324 326 324 326 326 324 323 322 319 319 317 317 317 316 313 312 311 310 311 310 310 310 306 306 302 302 303 303 303 303 303 300 298 298 299 300 302 298 295 297 297
301 302 302 302 301 301 302 303 304 303 304 304 304 304 305 306 309 313 312 314 316 316 318 317 316 317 317 315 315 313 312 312 314 314 314 315 314 314 316 316 318 321 319 318 320 323 323 322 323 324 324 322 318 319 319 318 317 317 315 313 311 310 311 310 310 310 310 309 307 305 301 301 300 300 301 301 300 300 298 299 302 301 300 303 299
301 301 301 302 302 303 302 303 304 305 304 304 304 304 304 306 308 310 311 313 315 316 315 315 314 314 315 314 314 312 312 312 312 312 312 312 311 312 314 315 315 316 319 320 320 318 318 318 321 322 321 319 318 320 320 320 318 318 316 314 312 311 311 311 309 309 309 309 308 307 306 304 303 302 302 301 301 297 296 297 300 300 300 300 304
301 301 301 301 301 301 302 303 304 305 304 304 304 306 306 307 308 309 310 312 314 315 313 315 314 312 311 312 312 312 313 315 315 312 311 311 313 313 315 315 314 315 316 316 317 319 320 320 318 318 318 320 320 318 318 317 316 315 315 313 312 311 311 309 309 308 308 308 308 308 307 307 306 305 306 305 303 302 302 301 302 303 302 303 304
301 301 301 301 300 301 302 304 304 304 305 306 306 306 306 308 308 310 310 311 313 313 312 312 313 312 312 312 312 313 316 317 317 313 311 314 315 315 314 314 315 315 316 316 314 316 318 319 320 318 316 318 319 319 318 318 317 316 315 314 313 312 311 310 309 308 308 308 308 309 308 307 307 307 307 306 306 305 303 301 302 302 300 301 303
300 301 302 302 303 303 304 305 306 306 307 308 308 308 308 309 310 310 309 308 308 309 310 310 311 314 316 314 314 313 315 316 316 313 313 314 315 314 314 315 315 315 314 313 316 316 316 317 318 319 319 319 318 318 318 317 316 316 315 314 313 313 312 310 310 309 309 308 308 307 307 307 307 307 307 305 304 303 302 301 301 299 299 299 300
299 300 301 302 303 303 305 306 306 306 308 309 309 309 309 309 310 309 308 307 308 308 309 311 313 316 317 317 317 317 316 316 315 314 314 313 312 311 311 312 312 311 311 313 314 314 312 314 316 316 315 316 316 316 315 314 314 314 313 313 312 311 309 308 308 307 308 308 307 307 306 307 307 307 306 306 306 305 304 303 300 297 298 299 298
299 299 300 301 302 303 304 305 305 306 307 307 309 310 310 310 309 309 309 309 310 310 310 313 315 316 316 316 316 315 314 315 313 312 311 311 309 310 310 310 309 309 309 309 309 311 311 311 313 314 314 314 314 315 315 313 312 312 311 310 311 311 310 308 308 308 307 307 307 307 306 306 306 306 306 306 306 305 305 304 303 300 297 295 297
299 300 299 300 301 302 303 303 304 305 305 306 307 308 309 310 310 309 309 308 309 310 311 311 312 311 312 313 313 313 312 310 309 308 309 309 309 307 308 308 307 306 308 307 307 306 307 307 308 310 310 311 312 312 311 310 312 312 309 308 308 309 309 309 308 307 307 307 306 306 306 306 306 306 305 305 305 305 304 304 303 302 301 296 294
299 300 300 300 301 302 303 303 303 304 304 304 305 304 305 307 308 309 309 309 309 309 309 308 309 308 309 309 309 310 309 307 306 307 308 308 308 307 307 306 306 306 305 306 304 305 305 303 305 304 304 306 306 309 310 311 312 310 310 307 308 309 306 306 307 307 307 306 306 306 305 305 305 305 304 304 303 304 303 303 303 303 302 298 297
298 299 300 302 301 302 302 302 302 303 303 302 303 304 304 303 305 306 306 306 306 306 305 306 306 306 307 306 306 306 306 306 306 305 304 304 304 304 303 304 304 303 303 303 302 300 300 300 301 301 301 302 302 303 303 302 304 304 304 305 305 307 305 304 306 306 306 305 304 303 304 304 304 304 304 303 303 302 302 302 302 302 300 300 299
299 300 300 302 301 301 301 301 302 302 302 302 303 304 303 303 303 303 304 304 303 303 303 303 303 304 304 303 303 302 302 303 302 302 302 303 304 304 303 302 302 300 300 299 298 299 298 298 298 299 299 298 299 299 299 299 300 299 299 301 303 303 302 302 303 304 304 305 303 303 303 304 304 303 302 302 302 302 302 301 301 301 300 300 299
299 300 301 301 300 299 300 299 299 298 299 301 302 302 302 302 302 302 302 301 301 301 301 301 302 302 301 301 302 301 301 301 301 301 301 301 300 300 300 300 297 297 297 296 296 296 296 296 296 296 296 296 297 299 299 299 298 297 299 299 299 301 299 299 299 301 302 302 302 303 303 303 304 302 301 299 300 300 299 299 299 299 299 298 297
300 300 300 299 299 299 298 299 297 298 299 299 301 301 300 300 299 300 300 300 300 300 300 300 299 300 300 300 300 299 299 299 298 298 298 297 295 295 295 295 296 296 295 295 295 295 295 295 295 295 297 297 297 300 299 299 299 298 300 303 302 300 301 301 300 301 300 302 300 301 302 302 300 300 300 297 295 295 295 296 297 297 298 298 298
301 300 300 299 298 297 297 298 298 298 299 298 299 300 299 298 298 297 298 297 298 298 298 299 299 299 298 298 297 295 295 295 294 294 294 293 293 293 293 293 293 293 293 294 294 294 294 293 294 295 298 298 299 298 298 298 299 299 299 300 300 299 300 299 299 300 300 301 300 299 299 298 299 297 297 296 295 295 295 295 296 295 296 296 297
298 299 299 299 297 296 298 298 299 299 298 299 299 299 298 297 297 296 295 295 296 296 297 297 297 297 296 296 295 293 293 293 293 292 291 291 292 292 292 292 293 293 294 293 294 292 292 292 293 295 296 297 297 298 297 297 299 298 299 299 299 299 299 299 299 299 299 298 298 298 299 298 296 296 297 295 294 294 294 294 294 295 295 296 297
297 298 299 297 296 297 298 299 299 298 297 297 298 297 296 295 294 294 294 294 294 295 295 296 295 295 294 294 293 292 291 291 291 290 290 290 290 290 291 292 291 291 291 290 291 291 291 292 293 294 295 295 295 296 296 296 297 297 297 297 298 298 298 298 298 298 295 297 296 296 297 296 296 295 295 294 294 294 294 294 294 295 295 295 295
297 298 297 297 297 298 298 298 298 297 296 296 295 295 294 294 294 293 293 292 293 293 294 296 295 295 294 292 291 291 290 288 288 288 289 289 289 289 289 289 289 291 289 290 290 289 291 292 291 290 291 291 291 292 293 294 295 295 295 296 296 296 296 296 296 296 296 296 296 296 296 295 294 294 294 294 294 294 294 294 294 294 294 294 294
298 298 297 296 297 298 298 297 297 295 294 294 294 294 293 293 292 292 292 292 293 294 294 294 294 292 292 290 289 288 288 288 288 288 289 289 289 288 288 289 288 289 288 288 288 289 288 289 289 290 290 289 290 290 291 290 291 292 293 293 293 293 293 294 294 294 294 295 295 295 295 295 294 294 294 294 294 294 294 293 294 294 294 293 293
297 297 298 298 297 297 297 296 295 294 294 293 292 293 293 292 291 291 291 292 294 293 293 293 292 291 289 289 288 287 287 288 288 288 288 288 288 287 287 287 287 287 288 288 288 288 287 288 288 289 289 289 289 288 287 288 288 289 290 289 290 291 291 292 292 293 293 293 293 294 294 294 294 294 294 294 294 293 294 293 294 293 293 293 292
297 298 298 297 297 297 296 295 294 293 293 292 292 292 292 291 290 289 289 290 291 292 291 290 289 289 288 287 288 287 287 287 286 286 287 287 287 286 286 286 285 286 288 286 287 287 287 287 286 287 288 288 290 290 289 289 288 287 286 287 288 288 288 288 289 290 291 292 292 293 293 293 293 291 291 292 293 293 294 293 293 293 292 292 292
297 298 298 297 298 297 296 295 294 294 293 292 292 291 291 290 290 289 289 289 290 290 290 289 289 288 288 287 287 286 287 286 287 287 286 286 286 285 285 286 286 286 286 287 287 287 286 287 288 287 286 288 290 290 290 292 293 288 287 288 288 287 287 287 288 289 289 290 290 291 292 290 290 289 290 291 292 292 292 293 293 293 292 291 291
297 296 297 297 298 297 296 295 294 293 293 293 292 291 291 290 289 288 288 288 289 289 288 288 288 287 286 286 286 286 286 287 286 286 286 286 286 286 286 286 286 286 286 286 286 286 286 286 286 286 287 288 289 290 291 294 295 295 288 286 286 287 286 287 287 287 287 288 288 289 289 289 289 289 289 290 291 291 292 292 292 292 292 292 291
297 296 296 297 298 297 295 294 293 293 292 292 292 291 290 289 289 288 289 289 290 289 289 288 287 287 286 286 286 286 286 286 286 285 285 285 285 285 285 285 285 285 286 285 285 284 285 284 286 284 284 286 286 289 293 293 293 294 293 288 286 286 286 286 286 286 287 287 288 288 288 289 289 289 289 289 290 291 291 291 291 291 292 292 292
297 297 297 297 297 296 295 293 292 292 292 291 291 290 289 289 288 288 289 289 289 289 288 288 287 287 286 286 286 286 286 286 285 285 284 284 284 283 283 283 284 283 282 284 282 283 283 283 283 283 284 285 285 289 291 292 292 292 292 290 286 285 285 286 286 286 286 287 287 287 288 288 290 288 288 288 289 289 289 290 290 291 291 291 292
295 296 296 295 295 294 293 292 291 290 290 289 289 289 288 287 287 287 288 288 288 287 287 286 286 285 285 285 285 285 284 284 283 283 282 282 282 282 281 281 282 281 281 281 281 282 282 282 282 282 283 284 285 287 291 291 291 291 292 291 285 285 285 285 285 286 286 286 286 286 287 288 288 288 288 288 288 288 288 288 288 288 289 289 290
295 295 295 294 294 292 290 289 289 289 288 288 288 288 287 287 287 288 287 287 286 286 285 285 284 284 284 284 284 283 283 282 281 280 280 280 280 280 280 281 281 281 282 283 283 283 283 282 281 281 282 284 285 288 290 291 291 291 291 290 285 284 284 284 285 285 285 286 286 287 287 287 288 288 288 288 288 288 288 288 288 288 288 289 289
296 295 294 294 293 291 290 289 288 288 288 288 288 287 287 286 287 287 286 286 285 285 284 283 283 283 283 283 282 281 281 280 280 279 279 280 280 279 280 281 281 282 282 281 282 280 282 283 283 283 282 283 284 288 289 290 290 291 291 287 284 283 283 284 284 284 284 285 285 286 286 286 287 287 288 290 290 288 287 287 287 287 287 288 288
292 294 293 292 291 290 288 288 288 287 287 287 287 286 286 286 286 285 285 284 284 283 283 283 282 282 282 281 281 280 279 279 279 279 279 280 280 281 281 281 281 282 282 282 281 281 282 282 282 282 282 283 283 285 288 289 289 290 289 284 283 282 283 283 283 284 284 284 285 285 285 286 286 287 288 290 291 290 287 287 286 286 287 287 287
289 289 289 288 288 288 287 288 287 286 286 286 286 286 286 285 284 284 283 282 282 282 281 281 281 281 280 280 280 279 278 278 277 279 279 278 279 278 278 280 279 280 281 281 281 281 281 282 282 282 282 282 283 284 287 288 289 290 289 285 283 282 282 282 283 284 284 284 284 285 285 285 286 286 288 290 291 289 286 286 286 285 285 286 286
288 289 287 287 287 287 286 286 286 285 285 285 285 285 285 284 283 282 282 281 281 280 280 280 280 279 279 279 278 278 277 277 277 277 278 277 278 278 280 278 279 278 280 281 282 281 281 281 281 281 282 282 282 283 286 288 289 289 288 283 283 282 282 282 283 283 284 284 284 284 285 286 286 287 290 291 291 289 287 286 286 285 285 285 286
286 286 286 286 286 286 285 285 284 284 284 285 285 284 283 283 282 281 280 279 279 279 278 279 279 279 279 277 276 277 276 275 274 275 275 276 277 278 277 277 278 279 279 279 280 280 279 280 280 280 281 280 281 282 282 288 289 289 290 286 283 281 282 283 283 283 283 283 284 284 285 287 288 289 289 290 290 290 287 286 286 285 285 285 287
285 285 286 285 284 284 283 283 283 283 283 284 284 283 282 281 280 279 278 278 278 278 278 278 278 277 276 276 275 275 274 274 274 275 275 276 276 276 276 275 276 278 276 277 277 278 279 280 279 278 280 279 279 281 282 287 288 289 289 288 282 282 282 282 282 283 283 283 283 283 284 286 288 288 288 288 288 289 288 286 286 285 285 286 287
285 285 284 283 282 282 281 281 281 282 283 283 283 282 280 279 278 277 276 276 276 276 276 276 275 274 274 274 273 274 275 274 275 275 273 274 275 276 276 274 275 275 275 276 275 278 279 280 281 278 278 280 281 282 281 285 287 288 288 289 285 283 284 283 282 283 283 283 283 283 283 285 287 287 287 287 288 288 288 286 286 288 288 288 286
284 283 283 283 281 280 280 279 280 280 281 282 281 279 278 277 276 276 276 276 276 275 275 275 274 273 273 273 273 273 274 274 273 274 273 273 274 273 274 275 275 275 277 277 278 278 278 279 279 280 279 280 280 281 284 283 285 287 287 288 289 287 288 284 282 282 282 282 283 283 283 284 286 286 287 287 288 288 287 286 287 287 287 287 287
283 283 282 282 280 279 278 278 278 279 280 280 280 278 277 275 275 275 275 274 274 273 273 272 272 272 272 272 273 272 272 272 273 273 273 273 273 274 276 278 279 279 279 278 277 277 277 277 277 278 279 279 280 280 281 283 283 285 285 286 286 285 285 283 282 281 282 282 283 283 284 285 286 286 286 287 287 286 285 286 286 286 286 286 285
282 282 281 280 279 278 277 277 277 277 278 277 277 277 276 274 275 274 272 271 272 271 271 270 270 271 271 271 270 270 272 272 271 272 273 274 274 273 274 276 276 276 275 275 275 276 276 276 276 276 277 278 278 279 279 281 282 283 284 284 284 284 284 285 282 282 283 283 284 285 285 285 285 285 285 285 285 284 285 285 285 285 285 284 284
281 281 280 279 277 276 276 275 275 276 276 277 276 276 274 274 274 272 271 271 270 269 269 269 269 269 269 270 270 271 271 271 273 274 274 273 273 272 273 273 273 272 271 273 273 274 274 275 275 275 275 276 277 277 277 278 280 280 281 282 283 283 283 283 283 283 284 284 284 284 284 284 283 283 283 282 282 283 284 285 285 284 284 284 284
280 280 279 277 276 275 274 274 274 276 276 276 275 274 273 273 271 271 270 270 269 269 269 269 268 269 269 270 270 271 271 273 272 271 271 272 272 271 270 272 271 270 269 270 272 273 273 273 273 274 274 275 275 276 276 277 278 279 280 281 281 281 282 282 282 282 283 282 282 282 283 283 283 283 283 283 283 283 284 283 283 284 284 284 284
279 279 278 277 276 275 274 274 274 276 276 275 274 272 271 270 269 269 267 267 268 268 267 267 266 268 269 268 267 272 270 268 269 269 270 270 270 269 269 270 270 270 269 269 270 270 271 272 272 273 273 273 274 275 275 276 278 279 279 279 279 280 280 280 280 281 281 281 281 281 282 281 282 282 282 282 282 283 283 283 284 284 284 284 284
278 277 277 277 276 275 274 274 274 275 275 273 272 271 270 268 268 266 265 265 266 267 266 266 267 267 266 269 268 268 268 267 268 268 268 269 269 269 269 268 268 269 270 270 269 270 271 269 271 272 273 273 275 275 276 280 279 280 278 278 278 278 278 279 279 281 280 280 280 279 279 279 279 279 280 280 281 281 282 283 283 283 284 284 284
276 276 276 276 275 274 273 273 274 275 274 272 271 269 268 267 266 264 264 263 264 265 265 265 266 266 265 266 266 267 267 267 266 267 268 268 273 274 274 270 268 276 278 278 278 272 273 273 273 273 274 275 275 276 279 279 279 280 280 280 280 280 280 279 280 281 280 278 277 277 277 277 278 278 279 279 280 280 281 281 282 283 283 282 283
274 274 273 274 273 273 272 272 273 274 273 272 270 268 266 264 264 264 263 263 263 265 266 265 265 264 265 265 265 266 267 268 268 268 267 267 266 269 274 276 276 276 276 276 277 278 278 278 276 274 274 278 277 278 278 278 279 279 279 279 280 280 280 280 281 279 277 276 276 276 276 277 278 278 279 279 280 280 280 280 281 281 281 282 282
Wind_Speed
6 9 10 11 10 9 8 7 8 7 7 8 8 8 9 9 9 10 9 7 8 8 7 7 8 7 4 6 6 6 7 7 7 7 7 6 7 8 8 7 5 8 8 7 7 7 7 6 6 6 5 7 7 8 7 6 6 6 5 4 5 4 3 2 2 3 2 2 2 4 6 5 7 6 7 7 7 7 6 7 6 6 6 6 7
5 4 5 8 8 8 7 7 7 9 8 8 10 10 9 9 10 9 9 9 8 8 8 7 6 7 7 7 6 6 7 7 7 6 7 6 5 8 8 7 7 6 7 7 7 7 7 7 6 7 6 7 7 6 5 5 5 4 4 4 4 7 5 5 3 4 2 6 4 4 4 4 9 8 8 10 9 8 8 8 7 7 8 7 6
6 6 5 6 7 7 8 8 8 10 10 10 9 9 8 8 8 7 9 10 8 8 8 8 7 7 7 6 7 4 4 6 7 6 6 6 4 5 7 6 6 6 5 6 7 7 7 7 6 6 6 6 6 5 5 6 6 6 6 7 5 3 3 4 7 8 5 2 1 2 5 4 2 2 5 9 8 9 7 8 9 8 10 7 6
8 8 8 6 6 6 6 6 7 7 7 7 7 9 8 8 6 8 8 8 8 8 8 6 7 6 6 6 6 6 4 1 1 3 4 4 6 5 4 6 6 7 7 7 7 7 8 7 6 6 6 6 7 6 5 6 6 6 6 7 5 4 4 5 5 6 5 6 2 6 2 1 8 5 5 5 8 11 9 11 8 8 9 7 6
8 7 7 7 7 8 9 8 6 6 7 9 9 9 8 9 8 8 8 8 7 7 7 6 6 6 6 4 2 3 2 2 2 1 3 5 6 5 5 4 5 6 7 7 7 7 6 6 6 6 6 7 6 7 7 8 8 7 7 6 7 8 6 4 4 6 7 7 5 1 1 1 6 5 3 5 4 4 7 9 8 9 9 9 8
7 8 9 10 9 6 5 6 7 7 7 6 6 7 6 7 7 6 5 6 7 7 8 6 7 8 7 7 6 4 5 4 6 5 4 3 4 3 5 6 6 6 7 7 7 6 6 6 6 6 5 6 6 7 7 5 6 7 8 8 8 8 9 6 4 5 8 9 10 8 6 6 3 2 3 6 0 5 5 5 8 7 7 8 7
3 2 2 6 7 8 8 8 8 8 7 5 5 5 5 6 6 6 6 6 6 6 7 7 6 6 6 7 6 7 7 4 2 3 5 4 4 4 4 5 6 7 6 5 5 6 6 6 7 7 7 6 6 6 6 7 7 7 6 7 8 8 6 8 8 5 3 6 8 10 10 8 1 1 7 3 9 1 3 3 6 6 8 8 8
6 6 5 4 5 7 8 7 7 7 5 5 5 5 6 5 6 6 5 5 5 5 6 7 7 5 5 5 6 6 6 4 4 4 4 3 3 4 5 5 6 6 4 4 3 4 5 7 7 7 6 6 6 6 6 5 5 5 7 8 7 6 8 9 9 6 8 5 7 9 10 9 7 6 5 8 8 10 10 4 6 6 6 9 9
4 5 5 5 5 5 5 6 5 5 5 6 5 5 5 5 5 5 5 5 5 5 7 6 6 6 5 4 4 4 4 3 1 0 1 2 2 2 1 1 3 4 2 2 3 4 5 6 6 5 5 5 6 5 5 5 6 6 7 7 8 8 8 9 8 8 8 8 5 6 7 8 7 8 7 3 7 8 13 9 12 2 3 7 6
1 2 2 3 4 4 3 5 5 4 4 4 4 4 4 5 5 6 5 5 5 5 6 6 6 6 6 5 5 4 3 2 1 0 2 2 3 2 0 1 1 0 0 2 2 2 2 3 3 5 7 7 7 8 7 8 8 9 9 10 10 10 8 8 9 8 7 7 7 5 5 4 5 6 6 6 7 9 13 10 10 10 10 8 7
4 4 2 3 3 4 4 5 4 4 3 4 4 4 4 5 5 6 5 4 5 5 6 6 5 5 5 5 5 5 5 4 2 1 2 1 1 0 0 1 1 0 1 1 2 1 2 3 4 4 3 3 4 5 7 8 9 10 9 8 9 10 8 8 9 8 8 7 8 7 8 8 9 9 8 7 8 6 6 11 12 9 9 13 9
4 4 4 4 3 3 4 4 5 4 4 4 4 4 4 5 5 6 5 5 5 6 5 6 6 4 3 3 4 4 5 5 4 4 3 3 1 1 1 1 2 2 3 2 1 2 3 4 3 4 4 4 5 3 4 4 4 4 5 6 6 7 7 7 7 8 8 7 7 7 8 8 8 9 7 6 7 9 8 13 11 7 7 9 5
4 4 5 4 4 5 5 5 5 5 5 5 5 4 4 5 6 7 5 5 6 6 5 6 6 5 4 2 2 3 3 4 5 5 4 4 5 4 4 5 2 4 5 4 2 3 3 4 4 4 5 5 5 4 4 4 5 6 6 7 8 8 8 8 8 9 9 9 9 8 7 7 8 7 7 7 7 6 7 10 11 5 11 10 7
4 4 4 4 5 5 5 6 5 5 6 6 6 5 5 5 6 7 5 5 5 5 5 5 5 4 4 3 2 3 4 4 4 3 3 3 4 4 4 4 4 5 4 5 6 7 6 5 4 4 3 3 4 5 5 4 5 5 5 6 6 7 6 8 9 9 9 9 6 6 7 8 9 6 7 6 7 7 9 10 11 8 7 12 7
4 4 4 4 4 5 5 5 5 5 6 6 5 5 5 6 7 7 6 5 5 5 4 5 5 5 5 5 4 4 3 4 3 2 1 3 3 2 2 2 4 3 5 6 5 6 4 4 5 4 3 4 5 5 3 3 3 4 4 4 4 3 4 5 6 6 8 8 7 7 8 7 7 6 6 7 6 8 8 8 7 12 12 9 12
4 5 5 5 4 5 5 5 5 5 6 5 6 6 6 6 7 7 7 6 5 5 4 4 5 4 4 4 4 3 4 3 3 2 3 2 2 3 4 4 4 3 2 1 2 1 1 3 3 4 3 4 4 4 4 3 2 3 3 3 5 3 4 5 6 5 7 7 8 7 7 8 7 7 6 7 7 7 7 6 7 8 11 16 9
4 5 5 5 4 4 5 5 5 5 5 5 5 5 5 7 8 7 6 5 5 5 5 5 5 4 4 3 3 3 3 3 3 4 4 4 4 3 1 0 1 3 3 3 4 4 4 3 3 1 2 4 4 4 5 4 4 4 3 3 3 4 4 6 5 6 6 6 6 8 8 8 7 6 6 6 7 6 6 6 6 8 8 11 14
4 5 5 5 4 5 5 5 5 5 5 5 5 5 4 5 7 9 8 8 6 5 5 5 5 5 5 5 5 5 4 4 3 1 0 0 1 1 1 1 1 1 2 2 3 3 3 3 3 3 3 3 3 3 4 5 5 5 5 5 4 3 3 4 5 5 6 5 6 6 6 8 6 6 6 6 6 7 7 7 7 7 7 11 11
5 5 5 5 5 4 5 5 5 6 6 5 5 5 5 5 5 6 6 6 5 5 4 4 4 3 3 3 3 3 2 2 1 1 2 2 2 2 2 2 3 3 2 2 2 3 2 3 2 3 4 3 3 4 4 3 1 2 3 4 3 4 4 4 5 5 5 5 6 7 7 8 6 7 7 7 6 6 7 6 7 6 7 9 11
5 5 5 5 5 5 5 5 5 5 5 5 5 5 5 5 6 6 6 6 6 5 5 5 4 4 4 4 4 4 3 3 3 2 1 1 0 1 1 2 2 3 4 4 4 3 3 3 3 3 3 3 3 3 3 4 4 3 3 3 3 2 2 3 5 4 4 5 5 7 8 7 6 5 6 6 7 6 6 7 7 7 8 8 8
5 5 5 6 6 5 5 5 5 5 5 5 5 5 5 5 5 5 6 6 5 4 5 4 4 4 4 4 4 4 3 3 3 2 1 2 3 3 3 3 3 3 3 3 3 4 4 4 4 4 4 4 4 5 4 3 3 3 3 3 3 3 4 4 4 5 4 5 6 8 8 9 7 7 6 6 6 6 6 6 6 7 8 7 8
6 5 6 6 5 5 5 5 5 5 5 5 5 5 5 5 4 5 6 5 5 5 5 4 4 4 5 5 5 4 4 4 4 3 3 4 4 4 4 4 3 2 3 3 3 3 4 4 4 4 4 4 4 5 5 6 5 4 4 3 3 4 5 5 4 5 4 4 4 7 8 8 5 7 6 6 5 5 5 6 8 8 10 9 8
6 6 6 6 5 5 5 5 5 5 5 5 5 5 5 5 5 5 6 5 5 5 4 4 5 5 5 5 5 4 4 4 4 4 4 4 4 4 4 4 3 3 3 2 3 3 4 4 4 5 5 4 4 4 5 5 5 5 5 4 4 4 4 4 5 6 5 5 6 7 8 6 4 5 6 7 6 7 6 8 9 7 9 9 9
6 6 5 5 5 5 5 5 5 5 5 5 5 5 5 5 5 5 5 5 5 4 5 5 5 6 5 6 5 4 4 4 4 4 4 4 4 3 3 2 2 2 1 2 2 3 4 4 3 4 4 4 4 4 3 3 4 5 6 6 6 5 5 6 6 6 6 5 7 8 9 7 6 8 9 8 7 6 7 8 9 9 10 12 10
6 7 7 6 6 6 5 5 5 5 5 5 5 5 5 5 5 5 4 4 4 4 5 5 5 6 6 6 5 5 6 5 4 4 4 4 3 3 2 1 2 3 3 3 3 3 2 1 1 1 2 2 3 4 4 4 4 4 4 5 5 5 6 6 6 7 7 6 7 8 9 7 7 9 10 8 8 8 8 8 10 10 10 10 8
7 7 7 8 6 5 5 5 5 5 5 5 5 5 5 5 5 4 4 4 4 4 5 6 6 7 6 7 6 6 5 4 4 4 4 4 4 4 4 3 3 2 3 3 3 3 1 0 0 1 1 2 2 2 3 3 3 4 4 5 5 6 6 6 6 6 7 6 8 9 9 8 7 9 10 9 8 9 8 9 11 11 10 8 9
9 8 7 6 6 6 6 6 5 5 5 5 5 5 5 5 5 4 4 4 4 5 5 6 7 7 7 6 5 4 3 3 3 4 4 4 4 4 4 3 2 1 2 3 3 3 3 2 2 1 1 2 3 2 2 3 3 3 4 4 5 5 6 6 6 7 7 7 8 9 9 8 9 9 10 10 9 10 9 11 11 11 10 8 10
5 6 8 8 7 6 7 6 6 5 5 5 5 5 5 5 5 4 4 4 5 6 6 7 7 6 6 5 4 3 4 4 4 4 4 4 4 4 4 3 3 3 3 2 3 2 3 2 3 3 3 3 4 4 4 4 4 4 4 4 4 6 7 7 6 7 7 8 8 8 8 8 9 9 10 10 9 10 9 11 10 8 9 9 10
6 7 7 8 8 7 7 7 7 6 6 5 5 6 5 5 4 4 4 4 5 7 7 7 6 6 4 4 4 4 4 4 4 4 5 5 5 4 4 3 3 4 3 3 3 4 4 4 4 4 4 4 4 4 4 3 4 4 4 4 5 6 6 7 8 8 8 8 8 8 8 8 10 13 15 15 14 13 11 12 12 8 9 10 10
9 9 8 7 7 8 8 7 7 7 7 6 6 5 5 5 5 4 4 4 6 7 8 7 6 5 4 4 4 5 5 4 5 6 6 5 5 4 4 4 5 4 5 4 5 5 5 5 5 5 4 4 4 3 5 7 6 4 4 5 6 6 6 7 8 9 10 8 8 8 9 13 15 16 16 17 17 18 18 16 14 11 10 10 10
7 6 7 7 8 8 8 8 7 7 7 7 6 6 6 6 5 4 4 4 6 8 7 7 6 4 4 4 4 5 5 7 5 5 5 6 5 5 5 5 5 5 5 5 5 5 5 4 5 5 5 5 4 4 8 9 9 8 5 4 5 7 6 7 7 8 10 10 9 8 8 10 11 12 13 16 17 19 19 20 21 21 17 14 12
8 8 7 8 9 10 10 9 8 7 7 7 8 6 6 6 4 4 4 5 8 8 8 7 6 5 5 4 4 5 7 6 7 7 6 5 5 6 6 5 5 6 5 4 5 4 4 4 4 4 4 5 5 6 10 9 9 8 8 6 5 6 7 7 8 9 9 9 10 10 8 7 8 9 10 11 13 17 18 18 19 19 20 21 20
7 8 10 11 11 9 10 9 8 8 8 7 8 8 7 6 5 4 4 7 8 8 8 8 6 5 5 5 5 7 7 7 6 6 5 5 5 5 6 5 5 4 4 4 4 4 4 4 3 4 5 6 5 6 9 10 11 10 10 8 6 6 7 8 8 9 9 9 9 9 10 9 8 12 11 10 10 12 14 17 18 19 19 20 20
5 7 8 6 6 8 8 8 8 7 7 6 7 8 7 5 5 4 7 8 9 8 8 7 6 5 4 5 6 6 6 5 4 4 4 4 4 4 4 3 3 4 4 4 4 4 4 4 4 4 5 6 7 8 11 12 12 12 11 8 5 5 6 7 8 9 9 9 8 9 10 12 11 9 9 10 10 11 11 11 10 10 11 14 17
7 7 8 8 8 9 9 9 8 9 8 9 8 7 7 5 4 8 8 9 8 8 7 6 6 4 5 5 6 5 5 4 4 4 3 4 4 3 4 3 3 4 4 5 5 6 5 5 5 4 4 6 7 12 13 13 14 14 15 10 5 6 6 7 8 7 8 8 9 9 9 12 13 12 10 10 10 11 11 12 12 12 12 12 12
9 11 10 11 11 13 12 10 7 9 7 7 9 7 7 7 6 9 8 8 7 7 6 5 5 4 5 5 5 4 4 3 3 3 3 4 3 3 4 4 4 4 4 4 5 4 5 6 6 5 5 6 7 11 13 13 14 13 14 8 6 7 7 8 9 8 8 8 8 9 9 11 13 13 15 17 14 11 11 14 15 14 13 13 13
5 8 8 6 8 10 10 10 8 8 9 8 7 7 8 8 8 8 8 7 7 7 6 5 5 4 4 4 4 3 3 3 2 3 4 4 5 5 5 4 5 5 5 5 4 4 5 6 6 5 6 6 6 9 12 13 13 14 10 7 6 6 7 8 9 9 8 8 8 8 9 10 12 13 16 18 17 15 11 14 15 15 15 14 15
8 7 8 9 8 9 8 10 10 8 7 7 7 8 9 9 9 7 8 7 7 7 5 4 4 4 4 3 3 3 3 3 3 4 4 4 4 3 3 3 4 5 5 5 5 5 5 5 5 6 6 7 7 7 10 12 13 13 10 8 7 7 8 8 10 9 8 7 9 14 13 11 12 13 17 20 20 14 11 13 14 15 16 17 17
6 10 11 9 9 10 10 9 10 10 7 7 8 9 10 10 8 7 7 8 6 5 4 4 4 4 3 3 3 3 3 3 4 3 3 4 4 3 4 3 4 4 5 5 5 5 5 5 5 6 8 7 7 7 8 10 12 11 8 6 6 6 8 9 10 11 10 8 8 9 14 14 12 14 20 20 21 15 11 11 13 13 16 17 18
7 6 8 10 10 12 10 9 9 8 7 8 8 9 10 10 8 6 8 7 5 4 3 3 4 4 3 3 3 4 3 4 3 4 3 3 3 3 4 3 4 4 4 4 4 5 5 5 5 5 5 5 6 7 5 9 11 12 12 7 5 6 8 11 11 11 11 11 11 10 11 14 17 18 19 21 21 23 16 13 12 13 15 19 14
8 9 9 10 8 9 10 8 6 6 7 7 8 10 10 8 7 8 7 4 3 3 3 3 4 4 4 3 3 4 4 4 3 3 3 3 3 4 4 4 4 4 3 4 4 4 4 5 4 4 5 5 4 5 7 10 11 13 14 12 7 7 7 8 9 11 10 11 12 12 12 17 21 19 20 23 25 26 24 16 14 14 14 18 20
6 8 9 10 10 10 10 8 5 6 6 7 9 11 9 8 8 7 4 3 3 3 3 3 3 3 3 3 3 3 3 2 3 2 3 4 4 4 4 4 4 3 4 4 5 5 6 6 5 4 4 5 5 6 6 10 14 15 14 16 9 8 8 8 9 9 11 11 12 12 13 18 24 24 28 30 31 30 30 18 16 22 30 32 20
9 9 6 10 11 10 9 7 5 5 5 6 10 11 9 7 8 5 3 3 3 3 3 3 3 3 2 2 2 2 3 2 2 3 2 3 3 3 4 3 3 4 4 4 5 7 7 8 8 7 5 5 6 7 11 10 13 16 17 16 16 10 16 11 10 12 12 13 13 14 16 22 26 31 33 31 31 34 27 18 28 32 32 32 24
5 7 8 9 10 9 9 7 5 5 5 5 9 11 8 8 6 4 3 3 3 3 3 3 2 1 1 1 1 2 2 1 1 3 3 2 3 3 3 3 4 4 5 6 7 7 7 7 9 10 9 7 6 7 10 13 12 17 18 18 19 21 21 13 12 11 12 12 14 14 17 30 33 33 33 32 32 32 24 32 32 33 33 27 18
9 8 8 7 11 11 10 8 6 6 5 5 5 11 10 9 5 3 2 3 2 3 2 2 1 1 0 1 2 2 0 1 2 1 2 2 3 3 3 4 3 5 5 6 6 5 6 6 7 9 10 10 8 8 8 10 14 14 18 21 23 24 24 23 15 11 12 12 19 30 32 31 32 32 33 32 28 29 32 32 34 33 27 16 14
8 8 8 8 9 9 10 10 7 4 5 5 5 6 10 7 5 3 3 2 3 3 2 2 1 0 0 0 1 1 1 2 1 2 2 3 2 2 2 4 5 5 4 5 5 5 6 6 7 8 9 10 10 8 9 9 9 10 13 20 24 23 23 22 19 15 20 27 28 28 32 31 28 24 20 17 17 19 31 33 29 24 14 13 12
10 8 10 10 9 10 9 9 9 5 5 6 7 6 6 5 4 3 2 2 2 2 2 1 1 0 1 1 2 2 3 2 2 2 2 1 2 2 3 3 4 4 3 3 4 5 6 7 7 8 9 11 10 9 9 9 9 11 11 11 13 13 18 19 13 10 13 15 20 20 19 26 24 31 32 26 24 22 18 15 15 14 13 12 12
6 8 8 8 9 10 10 9 9 7 6 6 6 6 6 5 4 3 2 2 2 2 2 1 1 1 1 2 3 4 3 2 3 3 3 3 3 2 3 4 3 5 4 4 3 4 6 6 7 8 9 10 10 9 8 10 13 12 12 10 11 12 11 10 11 11 12 15 16 18 20 15 13 13 13 12 12 11 13 12 12 12 13 14 16
9 7 8 9 9 10 9 9 8 7 7 7 7 6 5 5 4 3 2 2 2 1 1 1 1 2 2 2 1 1 2 3 3 3 3 4 4 5 3 2 4 2 2 3 3 4 4 3 4 6 9 11 12 12 11 16 17 20 18 15 13 12 13 13 16 26 19 14 11 12 10 12 10 13 12 13 11 13 12 12 14 12 12 13 13
5 6 6 6 7 9 10 9 8 7 7 8 7 6 5 4 3 2 2 2 2 2 2 2 3 3 2 1 1 1 2 2 3 3 4 4 5 7 4 1 2 5 7 7 7 3 5 5 5 3 3 7 10 13 23 27 26 26 27 27 25 25 24 21 24 30 21 14 10 10 11 12 11 12 12 12 14 13 12 13 13 15 16 16 15
8 9 7 8 7 7 8 8 8 7 7 7 7 6 5 3 2 1 1 1 1 3 4 3 3 1 1 0 0 1 1 2 3 4 4 5 5 6 6 4 4 5 7 8 8 9 10 10 8 7 7 14 16 19 22 24 26 27 29 30 29 28 27 26 26 19 13 12 12 12 11 11 11 12 12 13 12 13 13 14 12 13 14 12 14
Wind_Direction
195 186 181 175 175 174 174 165 173 177 178 181 181 178 178 177 161 172 179 173 169 174 176 171 176 182 183 193 201 189 190 192 202 205 208 208 190 191 194 203 194 185 194 196 203 204 209 210 209 214 192 187 185 201 202 208 206 200 194 182 176 184 217 137 101 105 108 297 259 267 278 240 236 228 237 240 235 238 241 239 239 236 236 234 235
124 106 133 156 162 164 164 163 168 174 189 182 187 187 182 179 177 173 170 179 179 178 176 182 185 185 182 195 190 193 187 190 203 205 206 215 203 189 190 195 202 197 192 200 207 204 206 209 207 211 199 193 199 201 200 204 201 195 179 205 205 189 211 175 173 117 258 230 266 313 281 253 230 218 230 238 232 231 227 231 234 232 235 232 232
177 169 152 149 152 157 163 171 179 184 185 185 187 184 185 185 183 173 171 177 185 179 173 183 181 180 177 184 182 191 193 190 189 192 196 204 208 180 183 185 188 207 206 200 205 208 207 205 212 217 198 188 191 204 202 206 199 192 187 192 216 224 185 175 184 186 220 129 173 349 282 318 321 293 254 249 235 234 227 232 231 231 236 232 226
184 176 178 177 164 159 161 173 183 176 180 185 183 186 187 188 181 177 176 175 181 185 178 177 172 173 173 170 177 166 174 116 109 172 195 207 229 218 195 180 187 204 213 210 211 213 207 205 207 212 205 184 192 202 206 215 204 202 194 203 176 207 218 227 190 187 187 121 283 217 237 102 301 262 249 251 214 225 219 229 226 231 234 231 216
179 180 173 162 168 180 184 189 180 186 186 186 187 186 187 187 186 180 177 178 176 178 177 168 157 157 160 148 127 98 79 123 134 236 195 205 220 219 224 196 202 211 216 213 206 211 208 211 218 215 205 200 192 203 211 213 206 200 195 196 192 203 224 223 201 184 202 208 199 109 305 272 229 278 338 266 178 218 233 230 227 226 230 226 214
164 175 178 174 175 176 176 177 184 196 199 199 186 182 172 180 180 177 172 171 173 174 174 165 162 159 156 165 181 190 204 210 210 198 201 202 200 192 195 205 215 225 219 214 211 204 213 217 219 214 206 204 198 204 209 198 198 196 198 200 211 212 220 217 214 199 208 214 230 240 225 249 255 226 31 298 327 212 229 219 229 226 231 234 227
223 207 172 152 169 166 177 180 185 188 200 180 161 169 163 167 173 174 171 168 168 166 167 160 158 161 169 172 175 186 195 222 195 195 206 207 193 210 205 191 195 200 203 202 208 204 211 216 216 213 209 199 196 198 201 201 200 203 200 205 215 216 210 231 228 201 198 234 228 242 262 268 208 270 256 315 296 297 276 240 245 221 226 229 230
193 199 199 194 168 166 171 175 173 184 174 163 164 163 160 162 162 164 159 157 160 156 156 159 161 164 163 171 174 181 184 192 187 205 186 170 192 224 215 222 220 205 203 216 217 211 212 222 219 217 215 208 191 205 210 211 206 204 204 213 220 212 211 220 227 196 188 225 200 232 244 262 264 261 249 244 272 290 279 259 235 218 220 234 222
146 166 184 191 195 183 170 170 165 146 149 160 164 162 151 145 144 145 152 152 161 151 150 154 152 160 166 171 184 194 160 173 152 122 162 182 214 263 252 221 133 123 136 166 189 215 225 234 226 219 208 201 190 205 207 208 220 222 214 214 216 219 216 223 226 221 201 224 164 226 232 244 251 246 258 189 236 263 273 263 271 211 244 257 242
147 174 176 152 156 143 124 115 103 122 134 131 141 149 155 153 156 155 162 159 160 155 145 150 147 151 170 182 182 188 148 141 111 244 240 205 189 194 125 33 23 15 184 170 185 209 203 217 250 231 213 207 202 206 207 210 216 222 219 213 214 218 215 214 219 225 217 221 210 195 200 224 239 260 242 229 243 228 259 268 266 271 271 258 218
172 183 174 139 119 127 116 135 134 101 116 132 147 154 160 156 156 154 165 149 143 146 135 146 144 153 165 173 172 168 164 155 155 266 288 17 66 15 59 332 354 89 122 300 291 255 211 203 223 249 262 262 250 250 235 219 212 215 219 215 212 212 213 215 221 228 227 228 224 216 224 213 226 235 235 214 225 242 253 261 265 251 254 273 259
161 149 145 123 125 134 162 141 129 139 138 134 144 143 150 151 146 146 147 139 136 143 136 147 149 159 154 154 160 160 147 148 159 202 211 227 210 289 320 330 320 320 307 283 234 235 265 268 248 244 252 257 255 236 237 237 234 226 224 216 219 219 222 219 224 230 230 239 244 232 233 229 235 241 245 228 218 242 241 265 270 286 268 253 271
153 139 146 154 156 169 168 144 135 152 157 148 156 150 151 149 150 144 142 133 138 146 153 150 146 155 154 130 128 137 147 161 186 195 193 183 182 203 226 233 254 276 263 249 250 269 275 276 273 264 258 247 251 247 241 231 230 224 221 223 221 219 214 215 220 226 220 225 231 233 238 237 241 237 241 245 253 260 254 273 272 278 276 280 274
114 122 136 139 148 162 146 145 151 148 145 149 151 151 151 148 140 130 131 124 124 130 142 136 138 139 144 150 168 150 165 178 190 194 189 170 173 194 191 194 207 216 221 221 223 221 214 216 231 260 265 264 251 248 244 235 230 228 231 235 232 230 220 221 228 231 232 236 239 239 234 237 244 237 240 242 249 257 263 264 283 276 264 280 278
127 122 121 121 122 128 137 136 132 134 137 140 142 147 144 140 133 135 132 130 129 137 144 148 152 154 169 168 187 171 173 183 196 184 204 187 186 187 209 213 226 236 218 237 236 215 213 211 197 203 253 310 329 317 286 254 240 244 242 244 250 239 231 230 238 237 242 243 238 236 244 243 246 240 234 243 237 242 250 261 272 291 286 265 281
120 116 96 92 104 106 107 115 124 129 136 140 143 148 147 143 138 144 146 147 144 150 160 157 159 156 162 168 170 147 155 155 178 202 234 211 206 190 211 216 221 226 257 5 17 99 205 217 217 224 214 208 216 254 290 296 265 248 255 249 255 234 239 240 244 240 248 250 249 248 250 252 248 246 239 245 243 245 248 254 256 267 285 294 276
116 114 120 114 97 99 114 116 116 121 123 126 133 136 139 140 139 140 138 142 151 167 164 159 157 165 166 168 162 166 167 190 206 199 201 214 213 214 195 236 31 29 4 23 10 10 14 12 358 329 212 225 235 223 218 232 245 241 243 250 254 240 234 243 243 239 245 245 246 246 246 254 252 252 252 252 251 249 249 252 245 253 263 277 292
119 104 118 130 123 104 99 100 107 110 112 100 83 84 101 110 123 134 145 150 157 157 154 160 150 154 164 170 172 171 173 196 207 216 221 78 13 19 22 21 358 350 46 13 9 355 351 347 346 325 318 323 287 258 239 228 218 218 218 224 221 218 242 260 256 251 251 248 253 257 252 258 258 255 251 248 242 242 245 244 247 245 236 252 270
119 124 116 114 118 113 98 94 83 82 88 98 96 89 79 77 107 120 125 127 130 124 115 105 108 107 124 130 125 125 110 124 111 80 59 55 25 18 24 15 6 4 25 13 12 9 3 344 336 318 325 320 322 320 321 314 286 262 263 248 235 207 219 244 250 248 259 253 256 255 252 255 251 251 250 248 243 238 244 246 248 247 245 244 260
148 144 139 126 113 107 109 104 96 93 95 100 103 93 86 86 88 94 94 98 97 104 112 108 102 99 85 80 72 79 75 71 72 76 65 87 90 55 37 21 0 23 24 27 25 7 347 341 329 340 331 326 323 310 327 326 331 320 303 291 276 263 251 245 251 230 234 238 252 260 259 259 257 254 253 252 249 240 240 243 242 243 248 239 252
155 150 139 123 111 95 84 89 90 87 83 80 85 93 91 82 85 95 106 99 92 84 88 95 99 104 109 111 111 97 88 85 77 73 61 54 54 55 47 46 42 17 23 15 22 17 16 5 2 2 3 353 349 336 329 330 329 318 312 304 307 316 303 290 278 269 253 243 244 251 253 251 247 247 244 248 247 251 248 250 246 249 251 238 235
150 144 134 127 117 103 94 88 90 93 87 85 86 88 80 80 87 85 86 94 99 83 90 86 81 89 89 85 81 71 67 63 63 68 64 58 50 48 45 37 45 347 32 13 31 32 21 14 6 1 7 5 359 356 353 0 349 342 328 317 303 289 278 274 273 275 274 266 260 260 263 264 255 251 254 253 246 252 247 251 246 238 244 241 221
147 137 132 129 125 126 125 120 111 105 102 95 87 88 92 91 82 82 86 80 91 97 96 101 97 88 83 80 74 67 72 75 73 70 65 58 47 38 41 41 22 5 2 29 23 41 41 27 18 7 5 4 357 349 346 349 345 344 335 325 325 321 305 299 293 280 279 286 287 283 280 280 282 277 265 263 256 253 248 247 251 240 248 247 237
119 117 115 117 120 119 114 110 101 100 100 95 94 91 87 83 84 86 91 92 89 91 90 88 87 91 92 83 86 82 66 68 76 70 66 55 46 41 46 31 12 6 351 330 29 63 57 48 28 7 358 349 342 325 321 321 318 322 319 314 315 312 306 300 294 291 288 283 273 276 273 280 283 281 277 272 259 248 245 247 250 247 246 251 243
129 134 132 124 126 131 135 126 115 108 101 99 98 97 88 79 81 90 88 93 94 100 105 107 105 97 85 82 72 64 65 60 68 63 60 58 49 47 40 47 30 16 14 24 4 49 72 79 77 13 321 325 322 333 337 334 327 324 316 313 313 310 305 298 291 290 290 290 288 279 285 285 281 275 275 269 270 260 255 253 253 253 250 253 249
149 143 143 151 152 138 119 114 109 107 109 102 97 95 91 78 64 75 89 77 73 82 94 98 95 89 79 71 63 60 61 64 66 63 66 63 57 50 44 29 50 29 1 15 38 8 39 315 222 231 226 254 263 269 275 279 284 291 292 291 288 286 287 288 288 287 285 280 277 279 280 282 278 272 275 276 272 267 265 257 258 260 257 257 255
166 160 152 135 137 138 131 116 114 110 106 110 110 105 100 95 79 65 72 84 81 82 82 86 87 83 80 71 71 78 83 82 77 72 63 59 57 52 50 32 10 39 42 23 11 22 350 26 334 347 297 277 285 288 292 298 305 307 305 307 305 301 294 291 284 280 278 274 272 273 275 273 274 272 275 276 278 275 267 266 262 265 266 260 261
143 150 160 162 153 137 130 126 118 114 101 91 89 96 105 107 106 91 79 78 84 90 87 87 86 86 89 102 113 111 91 74 67 64 63 59 56 49 38 19 36 36 37 28 10 15 333 359 327 332 311 315 319 321 317 311 305 300 303 298 298 295 293 288 284 278 275 273 271 270 270 269 266 267 268 273 272 274 275 272 269 266 270 266 264
170 176 167 161 161 151 141 134 134 126 123 122 114 107 96 86 84 83 77 82 97 98 93 92 92 93 100 107 97 81 71 69 68 66 57 49 46 39 31 33 34 32 18 17 12 15 6 357 352 349 340 336 333 314 296 290 294 300 303 301 298 298 298 299 296 292 285 281 278 273 271 268 262 261 260 260 263 263 271 277 273 264 266 268 267
186 182 177 170 158 150 146 140 140 138 136 132 120 111 108 108 102 94 89 86 97 97 101 98 91 89 84 80 78 74 74 72 58 52 46 42 38 27 26 25 23 20 13 5 10 4 11 360 352 345 344 338 322 308 299 291 283 275 287 292 295 290 289 286 290 292 290 282 278 276 273 267 268 268 266 265 263 261 256 254 266 272 267 267 268
194 182 175 173 161 152 145 145 149 142 143 132 122 117 111 106 108 111 105 108 103 98 92 90 84 77 71 66 67 64 65 55 48 48 39 35 25 21 23 20 16 14 8 359 3 0 356 350 345 336 332 326 316 308 302 302 301 293 282 282 284 290 287 285 282 284 286 292 288 280 278 278 274 272 271 267 265 264 261 258 257 257 255 256 267
192 186 173 172 169 161 153 151 145 140 133 129 127 124 115 115 119 122 123 107 95 92 90 83 77 68 62 60 59 62 57 49 42 34 29 25 23 27 22 14 13 10 358 358 0 348 341 341 339 338 328 316 314 312 313 316 316 313 305 288 277 279 285 281 282 281 283 286 289 290 285 279 273 270 270 273 270 265 262 261 259 258 256 252 247
186 180 185 186 175 159 146 142 141 139 130 133 129 122 125 132 130 158 124 94 87 85 84 76 67 65 57 54 55 57 56 48 39 31 24 25 31 28 20 12 7 349 360 9 339 352 338 343 356 339 325 318 314 315 319 317 315 311 305 296 277 270 274 278 277 278 280 284 288 291 293 286 277 274 273 269 270 276 274 268 264 263 259 254 251
182 183 184 178 145 134 134 137 132 123 117 118 119 121 128 138 146 129 96 86 87 78 79 77 70 65 58 57 58 57 54 46 39 34 28 33 38 26 5 344 356 0 4 345 340 341 337 342 339 332 322 319 314 315 317 315 313 311 309 306 281 279 274 273 275 278 280 284 284 286 290 290 288 279 269 272 275 275 278 280 275 266 262 258 253
177 169 169 168 148 126 123 124 129 130 125 117 113 121 126 118 121 95 83 87 83 89 83 81 75 66 60 57 60 61 57 45 37 36 38 39 37 16 10 348 5 357 357 347 342 342 334 331 329 327 321 313 304 306 312 312 313 313 312 317 301 295 288 282 279 275 277 278 281 279 276 279 284 285 277 269 274 279 283 280 276 275 269 266 262
183 168 170 161 158 152 146 140 135 127 128 126 132 136 120 112 98 93 91 88 93 90 87 82 76 66 66 62 66 64 57 49 42 36 45 34 31 18 1 340 360 349 348 347 334 337 325 319 311 312 306 292 288 292 297 298 299 299 304 307 303 296 293 289 286 284 277 275 273 273 275 277 278 280 279 278 274 275 279 280 280 277 276 270 265
156 156 157 145 133 130 131 127 128 130 131 133 131 123 117 110 98 93 93 94 91 87 83 83 79 71 67 68 70 71 66 48 38 44 37 22 12 359 352 354 358 344 338 330 311 301 291 291 290 290 288 281 282 284 287 290 292 296 300 298 295 291 288 286 284 284 280 276 272 266 267 271 278 280 282 285 285 284 277 278 278 279 278 279 274
108 93 99 107 109 108 114 122 123 120 126 128 126 124 117 108 103 99 99 94 89 84 83 84 83 78 70 67 70 66 65 39 38 32 19 2 353 345 329 340 344 321 316 298 291 286 282 277 283 284 276 283 287 286 287 292 293 292 290 292 295 297 291 291 290 287 284 276 272 273 269 272 278 283 288 291 291 289 281 278 279 280 283 282 280
120 131 124 120 119 120 120 115 117 122 129 124 123 120 112 107 105 104 99 95 86 86 83 85 81 78 68 59 64 53 45 33 30 8 6 352 335 317 299 321 308 289 281 281 281 287 289 287 276 274 278 278 287 296 297 294 297 296 296 288 289 292 297 298 301 301 300 293 286 282 281 280 279 282 288 293 297 298 288 283 283 282 281 280 280
97 90 111 117 119 115 113 120 124 130 127 122 120 112 107 108 106 105 95 90 90 86 80 71 70 66 62 42 39 50 27 22 5 348 346 326 303 308 299 300 292 276 269 282 289 289 289 291 288 286 292 283 296 305 311 314 313 319 322 311 284 295 297 299 301 302 306 305 304 302 294 291 296 296 297 300 301 300 296 290 287 282 281 282 291
117 118 116 108 105 109 116 118 118 116 114 115 116 110 107 107 108 99 91 91 83 69 63 64 68 64 55 37 33 37 16 348 337 329 319 314 305 290 290 293 285 286 289 302 305 304 304 306 307 306 303 308 299 311 323 330 337 337 333 332 315 296 284 286 293 300 300 305 307 305 305 304 307 302 301 301 301 300 298 293 286 281 280 286 293
98 107 111 108 105 104 101 89 78 89 104 114 115 111 111 111 103 96 100 81 69 63 56 58 65 54 50 27 33 10 355 331 319 330 330 307 290 287 286 285 288 309 330 331 327 329 334 327 328 325 321 320 323 334 338 342 339 336 335 333 326 308 300 299 306 300 304 306 303 305 305 306 308 307 306 305 303 301 299 296 286 287 291 292 289
124 110 111 120 116 111 102 99 79 71 87 113 116 113 113 110 104 106 91 78 68 67 54 59 65 55 33 20 6 348 324 325 333 318 296 292 298 315 311 312 342 348 347 351 348 350 348 339 332 335 338 336 337 341 350 344 338 341 339 335 335 344 348 345 327 313 312 308 307 304 302 303 304 306 307 307 306 303 302 295 297 298 296 295 294
105 117 126 118 111 109 104 89 80 73 78 104 119 118 118 112 109 100 88 67 67 48 63 61 53 44 11 354 329 308 290 302 310 298 294 283 313 323 332 349 356 347 1 5 359 353 344 342 338 330 331 338 345 346 343 345 344 339 338 342 344 338 333 324 320 306 305 299 298 299 302 306 308 308 307 306 305 303 300 300 300 299 297 295 288
133 130 122 119 127 125 116 100 85 80 75 84 102 120 120 115 123 96 89 87 78 62 73 70 45 352 351 280 316 291 270 298 294 302 337 335 347 350 7 336 6 9 20 13 344 346 342 331 332 330 327 329 340 345 337 338 336 335 340 335 330 326 324 324 316 304 296 297 301 304 305 307 307 306 305 304 302 299 299 301 300 298 296 291 288
123 124 126 124 118 117 119 115 96 85 86 83 87 107 117 127 116 99 89 93 91 90 94 106 45 316 282 287 335 337 349 302 311 345 345 329 341 344 354 347 19 20 19 4 340 343 342 340 334 330 328 325 330 337 335 332 333 335 329 326 326 325 324 321 314 305 305 306 306 306 306 304 303 303 304 301 300 299 300 298 296 296 295 291 287
144 141 131 131 134 129 129 125 119 111 101 95 91 85 92 106 105 97 88 97 103 111 110 111 62 324 334 23 0 351 351 348 7 354 334 341 347 9 18 6 18 11 2 350 354 348 341 339 337 330 325 325 326 331 333 330 334 330 329 328 329 327 326 325 319 308 309 308 306 305 305 307 304 302 299 294 288 290 291 292 294 292 289 287 289
134 137 138 135 140 141 140 137 130 133 124 114 104 100 99 94 84 78 55 81 113 108 117 92 15 25 14 31 5 2 7 352 350 2 0 351 350 11 27 357 349 336 352 340 355 345 336 332 331 329 324 323 322 328 335 339 336 336 333 330 325 323 325 323 319 316 312 309 308 308 306 301 296 292 290 288 290 285 283 283 285 287 285 280 274
147 152 150 154 149 144 145 139 136 138 132 119 111 111 105 99 85 66 59 87 110 104 113 104 62 66 46 29 342 0 355 359 339 355 349 342 331 327 330 313 298 263 307 330 326 317 309 304 317 325 327 321 323 327 333 332 328 327 325 324 325 327 326 322 319 318 314 307 300 300 300 304 298 299 296 293 290 292 287 283 280 282 285 288 289
137 132 140 139 146 146 145 139 137 139 134 130 122 116 101 92 86 72 81 107 125 146 141 124 94 85 76 9 354 351 341 353 352 355 351 350 348 341 297 248 265 315 335 335 335 323 321 323 319 295 294 323 325 322 324 327 327 327 325 323 320 318 317 316 316 317 316 307 303 300 300 302 301 299 297 298 300 301 302 304 307 305 305 306 304
154 145 149 150 145 141 135 137 143 144 136 132 125 120 113 95 84 75 89 139 175 155 131 116 110 130 140 159 163 20 338 28 7 11 0 348 351 359 349 323 341 360 354 344 341 343 343 352 352 337 333 328 323 321 323 324 326 327 325 324 323 322 321 321 321 320 317 312 308 307 306 302 301 302 301 304 309 313 314 313 312 313 308 303 307